VIV7240 MMSM-MMTL

Flight info

Callsign VIV7240
Flight time 1h 31m
Altitude 37000
Route LORSU2A LORSU DCT ALMET UT172 TEVET UT108 VER UJ24 IMUBI IMUBI1A
Aircraft A320/M-SDE3FGHIRWY/LB1

Departure

Time 2026-05-04 19:17
Airport Felipe Ángeles International Airport (MMSM)

Arrival

Time 2026-05-04 20:49
Airport Felipe Carrillo Puerto International Airport Tulum (MMTL)
Time Latitude Longitude Altitude Speed Heading
2026-05-04 18:53 19.73351 -99.02353 7377 ft 0 kts 320°
2026-05-04 19:04 19.73341 -99.02344 7377 ft 2 kts 320°
2026-05-04 19:05 19.73328 -99.02333 7400 ft 2 kts 321°
2026-05-04 19:05 19.73315 -99.02322 7377 ft 2 kts 322°
2026-05-04 19:05 19.73302 -99.02311 7377 ft 2 kts 324°
2026-05-04 19:05 19.73288 -99.02301 7377 ft 2 kts 329°
2026-05-04 19:06 19.73274 -99.02293 7377 ft 2 kts 345°
2026-05-04 19:06 19.73258 -99.02292 7377 ft 2 kts 39°
2026-05-04 19:06 19.73252 -99.02297 7377 ft 0 kts 48°
2026-05-04 19:06 19.73252 -99.02298 7377 ft 0 kts 48°
2026-05-04 19:09 19.73252 -99.02297 7376 ft 1 kts 48°
2026-05-04 19:09 19.73277 -99.02266 7377 ft 12 kts 49°
2026-05-04 19:09 19.73347 -99.02184 7377 ft 16 kts 48°
2026-05-04 19:09 19.73427 -99.02087 7377 ft 18 kts 49°
2026-05-04 19:10 19.73509 -99.01985 7377 ft 19 kts 50°
2026-05-04 19:10 19.73595 -99.01879 7377 ft 19 kts 49°
2026-05-04 19:10 19.73685 -99.01771 7377 ft 20 kts 49°
2026-05-04 19:10 19.73777 -99.01658 7377 ft 21 kts 49°
2026-05-04 19:11 19.73839 -99.01581 7377 ft 21 kts 49°
2026-05-04 19:11 19.73928 -99.01426 7377 ft 13 kts 116°
2026-05-04 19:11 19.73871 -99.01339 7376 ft 19 kts 84°
2026-05-04 19:11 19.73959 -99.01214 7377 ft 22 kts 49°
2026-05-04 19:12 19.74063 -99.01088 7377 ft 23 kts 49°
2026-05-04 19:12 19.74273 -99.00829 7377 ft 25 kts 49°
2026-05-04 19:12 19.74396 -99.00678 7377 ft 27 kts 49°
2026-05-04 19:13 19.74523 -99.00526 7376 ft 28 kts 49°
2026-05-04 19:13 19.74657 -99.00361 7377 ft 32 kts 49°
2026-05-04 19:13 19.74802 -99.00184 7377 ft 31 kts 49°
2026-05-04 19:13 19.74944 -99.00011 7377 ft 31 kts 49°
2026-05-04 19:14 19.75081 -98.99844 7378 ft 30 kts 50°
2026-05-04 19:14 19.75218 -98.99675 7377 ft 30 kts 49°
2026-05-04 19:14 19.75355 -98.99507 7376 ft 30 kts 49°
2026-05-04 19:14 19.75491 -98.99341 7377 ft 30 kts 49°
2026-05-04 19:15 19.75569 -98.99245 7377 ft 29 kts 49°
2026-05-04 19:15 19.75587 -98.99223 7377 ft 29 kts 49°
2026-05-04 19:15 19.75588 -98.99149 7377 ft 6 kts 142°
2026-05-04 19:15 19.75555 -98.99120 7377 ft 6 kts 140°
2026-05-04 19:16 19.75499 -98.99104 7378 ft 13 kts 187°
2026-05-04 19:16 19.75444 -98.99147 7378 ft 17 kts 228°
2026-05-04 19:16 19.75265 -98.99367 7377 ft 77 kts 229°
2026-05-04 19:16 19.74929 -98.99780 7379 ft 127 kts 230°
2026-05-04 19:17 19.74677 -99.00090 7377 ft 150 kts 229°
2026-05-04 19:17 19.73722 -99.01248 7423 ft 195 kts 231°
2026-05-04 19:17 19.73100 -99.02002 7603 ft 217 kts 230°
2026-05-04 19:17 19.71597 -99.03812 8319 ft 267 kts 231°
2026-05-04 19:18 19.70762 -99.04827 8729 ft 283 kts 231°
2026-05-04 19:18 19.69430 -99.06464 9153 ft 303 kts 230°
2026-05-04 19:18 19.68013 -99.08210 9549 ft 320 kts 230°
2026-05-04 19:18 19.66526 -99.10041 10176 ft 336 kts 229°
2026-05-04 19:19 19.64959 -99.11959 10770 ft 350 kts 230°
2026-05-04 19:19 19.63329 -99.13944 11369 ft 364 kts 229°
2026-05-04 19:19 19.61639 -99.16002 11975 ft 377 kts 230°
2026-05-04 19:19 19.59882 -99.18131 12597 ft 389 kts 229°
2026-05-04 19:20 19.57745 -99.19935 13223 ft 401 kts 206°
2026-05-04 19:20 19.55040 -99.20714 13985 ft 409 kts 183°
2026-05-04 19:20 19.52248 -99.20317 14692 ft 416 kts 160°
2026-05-04 19:20 19.49750 -99.18783 15416 ft 420 kts 137°
2026-05-04 19:21 19.47753 -99.16505 16166 ft 424 kts 129°
2026-05-04 19:21 19.45797 -99.14137 16903 ft 430 kts 129°
2026-05-04 19:21 19.43816 -99.11740 17647 ft 435 kts 129°
2026-05-04 19:21 19.41951 -99.09215 18406 ft 436 kts 121°
2026-05-04 19:22 19.40487 -99.06400 19103 ft 438 kts 111°
2026-05-04 19:22 19.39784 -99.03283 19776 ft 436 kts 90°
2026-05-04 19:22 19.39978 -99.00078 20477 ft 437 kts 81°
2026-05-04 19:22 19.40495 -98.96897 21166 ft 439 kts 77°
2026-05-04 19:23 19.41196 -98.93743 21858 ft 442 kts 74°
2026-05-04 19:23 19.41979 -98.90582 22566 ft 444 kts 74°
2026-05-04 19:23 19.42749 -98.87452 23285 ft 446 kts 75°
2026-05-04 19:23 19.43488 -98.84253 23978 ft 448 kts 76°
2026-05-04 19:24 19.44210 -98.81040 24592 ft 448 kts 72°
2026-05-04 19:24 19.45219 -98.77930 25225 ft 446 kts 69°
2026-05-04 19:24 19.46279 -98.74856 25867 ft 443 kts 68°
2026-05-04 19:24 19.47347 -98.71814 26534 ft 438 kts 68°
2026-05-04 19:25 19.48404 -98.68812 27223 ft 432 kts 68°
2026-05-04 19:25 19.49411 -98.65839 27961 ft 424 kts 69°
2026-05-04 19:25 19.50369 -98.62909 28662 ft 419 kts 69°
2026-05-04 19:25 19.51315 -98.59973 28925 ft 424 kts 69°
2026-05-04 19:26 19.52264 -98.57024 28997 ft 433 kts 69°
2026-05-04 19:26 19.54246 -98.50882 29450 ft 441 kts 69°
2026-05-04 19:26 19.55243 -98.47809 29805 ft 444 kts 69°
2026-05-04 19:27 19.56258 -98.44691 29942 ft 450 kts 69°
2026-05-04 19:27 19.57284 -98.41538 30149 ft 455 kts 69°
2026-05-04 19:27 19.58319 -98.38356 30380 ft 458 kts 69°
2026-05-04 19:27 19.59360 -98.35158 30613 ft 460 kts 69°
2026-05-04 19:28 19.60406 -98.31938 30857 ft 463 kts 69°
2026-05-04 19:28 19.61453 -98.28701 31087 ft 466 kts 69°
2026-05-04 19:28 19.62511 -98.25432 31312 ft 469 kts 69°
2026-05-04 19:28 19.63557 -98.22189 31547 ft 472 kts 69°
2026-05-04 19:29 19.64621 -98.18886 31789 ft 475 kts 69°
2026-05-04 19:29 19.65692 -98.15570 32030 ft 477 kts 69°
2026-05-04 19:29 19.66770 -98.12229 32270 ft 480 kts 69°
2026-05-04 19:29 19.67810 -98.08858 32501 ft 483 kts 74°
2026-05-04 19:30 19.68278 -98.05313 32731 ft 490 kts 88°
2026-05-04 19:30 19.67929 -98.01705 32969 ft 496 kts 102°
2026-05-04 19:30 19.66745 -97.98254 33197 ft 501 kts 117°
2026-05-04 19:30 19.64787 -97.95186 33409 ft 506 kts 131°
2026-05-04 19:31 19.62232 -97.92605 33687 ft 508 kts 138°
2026-05-04 19:31 19.59588 -97.90135 34166 ft 505 kts 139°
2026-05-04 19:31 19.56959 -97.87687 34626 ft 502 kts 139°
2026-05-04 19:31 19.54449 -97.85200 35080 ft 498 kts 132°
2026-05-04 19:32 19.52335 -97.82318 35559 ft 495 kts 122°
2026-05-04 19:32 19.50738 -97.79110 36026 ft 491 kts 111°
2026-05-04 19:32 19.49686 -97.75692 36502 ft 485 kts 103°
2026-05-04 19:32 19.48920 -97.72216 36893 ft 484 kts 103°
2026-05-04 19:33 19.48150 -97.68728 36998 ft 488 kts 103°
2026-05-04 19:33 19.46579 -97.61627 37017 ft 502 kts 103°
2026-05-04 19:34 19.44962 -97.54334 37042 ft 515 kts 103°
2026-05-04 19:34 19.43350 -97.47101 37431 ft 491 kts 103°
2026-05-04 19:34 19.42573 -97.43618 37949 ft 483 kts 103°
2026-05-04 19:35 19.41801 -97.40158 38283 ft 482 kts 104°
2026-05-04 19:35 19.41029 -97.36700 38550 ft 482 kts 104°
2026-05-04 19:35 19.40258 -97.33245 38803 ft 482 kts 104°
2026-05-04 19:35 19.39488 -97.29793 38981 ft 483 kts 104°
2026-05-04 19:36 19.38710 -97.26311 39062 ft 488 kts 104°
2026-05-04 19:36 19.37134 -97.19268 39053 ft 493 kts 104°
2026-05-04 19:37 19.35548 -97.12194 39070 ft 493 kts 104°
2026-05-04 19:37 19.33952 -97.05128 39070 ft 494 kts 104°
2026-05-04 19:38 19.32364 -96.98097 39053 ft 494 kts 104°
2026-05-04 19:38 19.30772 -96.91020 39060 ft 494 kts 104°
2026-05-04 19:39 19.29179 -96.83939 39049 ft 495 kts 104°
2026-05-04 19:39 19.27573 -96.76855 39043 ft 496 kts 104°
2026-05-04 19:40 19.25954 -96.69759 39033 ft 496 kts 104°
2026-05-04 19:40 19.24333 -96.62657 39016 ft 496 kts 104°
2026-05-04 19:41 19.22733 -96.55604 39019 ft 497 kts 104°
2026-05-04 19:41 19.21122 -96.48499 39017 ft 497 kts 104°
2026-05-04 19:42 19.19496 -96.41399 39030 ft 497 kts 104°
2026-05-04 19:42 19.17853 -96.34302 39036 ft 497 kts 104°
2026-05-04 19:43 19.16223 -96.27207 39043 ft 497 kts 104°
2026-05-04 19:43 19.14814 -96.20063 39042 ft 497 kts 94°
2026-05-04 19:44 19.15148 -96.12858 39038 ft 494 kts 80°
2026-05-04 19:44 19.16144 -96.05661 39026 ft 495 kts 81°
2026-05-04 19:45 19.17119 -95.98453 39014 ft 495 kts 81°
2026-05-04 19:45 19.18090 -95.91241 39001 ft 495 kts 81°
2026-05-04 19:46 19.19066 -95.84028 38988 ft 496 kts 81°
2026-05-04 19:46 19.20034 -95.76861 38984 ft 496 kts 81°
2026-05-04 19:47 19.21009 -95.69640 38990 ft 496 kts 81°
2026-05-04 19:47 19.21977 -95.62418 38990 ft 496 kts 81°
2026-05-04 19:48 19.22939 -95.55194 38989 ft 496 kts 81°
2026-05-04 19:48 19.23903 -95.47963 38990 ft 496 kts 81°
2026-05-04 19:49 19.24862 -95.40784 38986 ft 496 kts 81°
2026-05-04 19:49 19.25818 -95.33552 38986 ft 496 kts 81°
2026-05-04 19:50 19.26770 -95.26320 38989 ft 496 kts 81°
2026-05-04 19:50 19.27722 -95.19089 38986 ft 496 kts 81°
2026-05-04 19:51 19.28673 -95.11851 38984 ft 496 kts 81°
2026-05-04 19:51 19.29623 -95.04620 38984 ft 496 kts 81°
2026-05-04 19:52 19.30570 -94.97382 38983 ft 496 kts 81°
2026-05-04 19:52 19.31499 -94.90192 38982 ft 496 kts 81°
2026-05-04 19:53 19.32439 -94.82957 38989 ft 496 kts 81°
2026-05-04 19:53 19.33370 -94.75716 38981 ft 496 kts 81°
2026-05-04 19:54 19.34306 -94.68480 38983 ft 496 kts 81°
2026-05-04 19:54 19.35240 -94.61239 38984 ft 496 kts 81°
2026-05-04 19:55 19.36166 -94.53998 38988 ft 496 kts 81°
2026-05-04 19:55 19.37083 -94.46808 38985 ft 496 kts 81°
2026-05-04 19:56 19.38007 -94.39555 38985 ft 497 kts 81°
2026-05-04 19:56 19.38920 -94.32307 38985 ft 497 kts 81°
2026-05-04 19:57 19.39824 -94.25056 38988 ft 497 kts 81°
2026-05-04 19:57 19.40742 -94.17797 38987 ft 497 kts 81°
2026-05-04 19:58 19.41658 -94.10590 38988 ft 497 kts 81°
2026-05-04 19:58 19.42569 -94.03319 38973 ft 498 kts 81°
2026-05-04 19:59 19.43472 -93.96031 38972 ft 499 kts 81°
2026-05-04 19:59 19.44379 -93.88733 38973 ft 500 kts 81°
2026-05-04 20:00 19.45287 -93.81433 38983 ft 500 kts 81°
2026-05-04 20:00 19.46184 -93.74125 38982 ft 500 kts 81°
2026-05-04 20:01 19.47080 -93.66815 38990 ft 500 kts 81°
2026-05-04 20:01 19.47976 -93.59557 38988 ft 500 kts 81°
2026-05-04 20:02 19.48867 -93.52244 38996 ft 500 kts 82°
2026-05-04 20:02 19.49756 -93.44930 38999 ft 500 kts 82°
2026-05-04 20:03 19.50651 -93.37617 38996 ft 500 kts 81°
2026-05-04 20:03 19.51537 -93.30297 38984 ft 500 kts 82°
2026-05-04 20:04 19.52415 -93.22978 38987 ft 501 kts 82°
2026-05-04 20:04 19.53283 -93.15708 38991 ft 501 kts 82°
2026-05-04 20:05 19.54164 -93.08385 38989 ft 501 kts 82°
2026-05-04 20:05 19.55038 -93.01068 38989 ft 501 kts 82°
2026-05-04 20:06 19.55905 -92.93734 38996 ft 501 kts 82°
2026-05-04 20:06 19.56770 -92.86411 38997 ft 501 kts 82°
2026-05-04 20:07 19.57640 -92.79083 38980 ft 501 kts 82°
2026-05-04 20:07 19.58500 -92.71750 38987 ft 501 kts 82°
2026-05-04 20:08 19.59352 -92.64469 38985 ft 501 kts 82°
2026-05-04 20:08 19.60203 -92.57135 38985 ft 501 kts 82°
2026-05-04 20:09 19.61066 -92.49793 38991 ft 502 kts 82°
2026-05-04 20:09 19.61923 -92.42451 38986 ft 502 kts 82°
2026-05-04 20:10 19.62762 -92.35102 38994 ft 502 kts 82°
2026-05-04 20:10 19.63586 -92.27805 38987 ft 502 kts 82°
2026-05-04 20:11 19.64429 -92.20458 38989 ft 502 kts 82°
2026-05-04 20:11 19.65274 -92.13113 38986 ft 501 kts 82°
2026-05-04 20:12 19.66114 -92.05772 38994 ft 501 kts 82°
2026-05-04 20:12 19.66940 -91.98433 38988 ft 501 kts 82°
2026-05-04 20:13 19.67763 -91.91144 38981 ft 501 kts 82°
2026-05-04 20:13 19.68590 -91.83802 38988 ft 501 kts 82°
2026-05-04 20:14 19.69417 -91.76455 38977 ft 502 kts 82°
2026-05-04 20:14 19.70246 -91.69102 38985 ft 502 kts 82°
2026-05-04 20:15 19.71053 -91.61741 38988 ft 502 kts 82°
2026-05-04 20:15 19.71865 -91.54376 38977 ft 503 kts 82°
2026-05-04 20:16 19.72681 -91.47058 38984 ft 503 kts 82°
2026-05-04 20:16 19.73500 -91.39691 38990 ft 503 kts 82°
2026-05-04 20:17 19.74310 -91.32327 38974 ft 502 kts 82°
2026-05-04 20:17 19.75119 -91.24964 38973 ft 502 kts 82°
2026-05-04 20:18 19.75918 -91.17600 38973 ft 502 kts 82°
2026-05-04 20:18 19.76715 -91.10233 38974 ft 503 kts 83°
2026-05-04 20:19 19.77506 -91.02900 38957 ft 503 kts 83°
2026-05-04 20:19 19.78295 -90.95517 38958 ft 504 kts 83°
2026-05-04 20:20 19.79089 -90.88131 38951 ft 504 kts 83°
2026-05-04 20:20 19.79877 -90.80735 38973 ft 504 kts 83°
2026-05-04 20:21 19.80669 -90.73332 38947 ft 505 kts 83°
2026-05-04 20:21 19.81840 -90.62243 38945 ft 507 kts 83°
2026-05-04 20:22 19.82622 -90.54804 38950 ft 507 kts 83°
2026-05-04 20:22 19.83413 -90.47354 38953 ft 507 kts 82°
2026-05-04 20:23 19.84318 -90.39928 38953 ft 507 kts 81°
2026-05-04 20:23 19.85277 -90.32497 38954 ft 508 kts 81°
2026-05-04 20:24 19.86208 -90.25059 38949 ft 508 kts 82°
2026-05-04 20:24 19.87096 -90.17610 38943 ft 509 kts 82°
2026-05-04 20:25 19.87985 -90.10205 38942 ft 508 kts 82°
2026-05-04 20:25 19.88890 -90.02758 38942 ft 509 kts 82°
2026-05-04 20:26 19.89785 -89.95297 38947 ft 509 kts 82°
2026-05-04 20:26 19.90677 -89.87834 38945 ft 509 kts 82°
2026-05-04 20:27 19.91568 -89.80366 38944 ft 510 kts 82°
2026-05-04 20:27 19.92462 -89.72898 38945 ft 509 kts 82°
2026-05-04 20:28 19.93348 -89.65429 38949 ft 509 kts 82°
2026-05-04 20:28 19.94226 -89.57955 38949 ft 510 kts 82°
2026-05-04 20:29 19.95103 -89.50534 38954 ft 510 kts 82°
2026-05-04 20:29 19.95984 -89.43057 38956 ft 510 kts 82°
2026-05-04 20:30 19.96854 -89.35577 38958 ft 510 kts 82°
2026-05-04 20:30 19.97708 -89.28156 38642 ft 502 kts 82°
2026-05-04 20:31 19.98135 -89.24472 37981 ft 504 kts 82°
2026-05-04 20:31 19.98561 -89.20815 37336 ft 505 kts 82°
2026-05-04 20:31 19.98992 -89.17118 36741 ft 504 kts 81°
2026-05-04 20:31 19.99423 -89.13442 36272 ft 499 kts 81°
2026-05-04 20:32 19.99774 -89.09767 35677 ft 500 kts 85°
2026-05-04 20:32 19.99860 -89.06082 35154 ft 498 kts 88°
2026-05-04 20:32 20.00108 -89.02433 34608 ft 492 kts 76°
2026-05-04 20:32 20.01310 -88.99084 33978 ft 482 kts 54°
2026-05-04 20:33 20.03204 -88.96192 33476 ft 474 kts 52°
2026-05-04 20:33 20.04672 -88.93041 32718 ft 484 kts 73°
2026-05-04 20:33 20.05006 -88.89476 32097 ft 490 kts 92°
2026-05-04 20:33 20.04466 -88.85949 31548 ft 488 kts 96°
2026-05-04 20:34 20.03866 -88.82400 30939 ft 486 kts 96°
2026-05-04 20:34 20.03349 -88.78858 30334 ft 481 kts 90°
2026-05-04 20:34 20.03262 -88.75337 29728 ft 473 kts 83°
2026-05-04 20:34 20.03442 -88.72981 29239 ft 466 kts 76°
2026-05-04 20:37 20.03738 -88.71104 28915 ft 461 kts 75°
2026-05-04 20:37 20.04332 -88.67770 28211 ft 456 kts 74°
2026-05-04 20:37 20.05158 -88.64598 27460 ft 435 kts 62°
2026-05-04 20:38 20.06511 -88.61797 26733 ft 419 kts 56°
2026-05-04 20:38 20.07886 -88.59097 26021 ft 411 kts 57°
2026-05-04 20:38 20.09189 -88.56418 25323 ft 405 kts 58°
2026-05-04 20:38 20.10436 -88.53800 24659 ft 399 kts 59°
2026-05-04 20:39 20.11679 -88.51189 23990 ft 393 kts 59°
2026-05-04 20:39 20.12915 -88.48621 23302 ft 387 kts 59°
2026-05-04 20:39 20.14148 -88.46088 22546 ft 383 kts 59°
2026-05-04 20:39 20.15372 -88.43594 21795 ft 379 kts 59°
2026-05-04 20:40 20.16596 -88.41109 20943 ft 378 kts 59°
2026-05-04 20:40 20.17817 -88.38628 20107 ft 378 kts 60°
2026-05-04 20:40 20.19032 -88.36158 19308 ft 376 kts 60°
2026-05-04 20:40 20.20242 -88.33696 18520 ft 374 kts 61°
2026-05-04 20:41 20.21374 -88.31239 17683 ft 373 kts 69°
2026-05-04 20:41 20.21876 -88.29465 17089 ft 371 kts 74°
2026-05-04 20:41 20.22739 -88.25959 15959 ft 368 kts 74°
2026-05-04 20:41 20.23388 -88.23333 15126 ft 365 kts 74°
2026-05-04 20:42 20.24034 -88.20729 14323 ft 362 kts 74°
2026-05-04 20:42 20.24674 -88.18146 13505 ft 359 kts 74°
2026-05-04 20:42 20.25306 -88.15588 12631 ft 356 kts 74°
2026-05-04 20:42 20.25928 -88.13053 11775 ft 352 kts 75°
2026-05-04 20:43 20.26337 -88.11387 11221 ft 350 kts 75°
2026-05-04 20:43 20.26951 -88.08888 10397 ft 347 kts 74°
2026-05-04 20:43 20.27558 -88.06421 9560 ft 344 kts 75°
2026-05-04 20:43 20.28159 -88.03972 8695 ft 340 kts 75°
2026-05-04 20:44 20.28755 -88.01543 7844 ft 337 kts 75°
2026-05-04 20:44 20.29347 -87.99140 7016 ft 333 kts 75°
2026-05-04 20:44 20.29932 -87.96765 6191 ft 330 kts 75°
2026-05-04 20:44 20.30509 -87.94414 5339 ft 326 kts 76°
2026-05-04 20:45 20.30692 -87.92035 4501 ft 321 kts 97°
2026-05-04 20:45 20.30011 -87.89845 4100 ft 303 kts 118°
2026-05-04 20:45 20.29023 -87.88000 3979 ft 279 kts 119°
2026-05-04 20:45 20.28097 -87.86266 3949 ft 262 kts 120°
2026-05-04 20:46 20.27222 -87.84628 3957 ft 247 kts 119°
2026-05-04 20:46 20.26398 -87.83088 3955 ft 232 kts 119°
2026-05-04 20:46 20.25616 -87.81629 3960 ft 231 kts 119°
2026-05-04 20:46 20.24779 -87.80064 3580 ft 252 kts 119°
2026-05-04 20:47 20.23884 -87.78397 2862 ft 263 kts 119°
2026-05-04 20:47 20.22970 -87.76700 2134 ft 266 kts 119°
2026-05-04 20:47 20.22050 -87.74993 1599 ft 262 kts 118°
2026-05-04 20:47 20.21166 -87.73355 1236 ft 248 kts 119°
2026-05-04 20:48 20.20361 -87.71867 954 ft 220 kts 118°
2026-05-04 20:48 20.19667 -87.70587 717 ft 177 kts 118°
2026-05-04 20:48 20.19117 -87.69528 447 ft 155 kts 116°
2026-05-04 20:48 20.18597 -87.68550 288 ft 151 kts 117°
2026-05-04 20:49 20.18071 -87.67590 109 ft 149 kts 117°
2026-05-04 20:49 20.17620 -87.66753 92 ft 108 kts 120°
2026-05-04 20:49 20.17388 -87.66328 86 ft 39 kts 119°
2026-05-04 20:49 20.17241 -87.66052 86 ft 45 kts 120°
2026-05-04 20:50 20.17090 -87.65769 90 ft 33 kts 127°
2026-05-04 20:50 20.16931 -87.65655 90 ft 14 kts 149°
2026-05-04 20:50 20.16925 -87.65652 91 ft 2 kts 149°
2026-05-04 20:50 20.16877 -87.65640 89 ft 10 kts 225°
2026-05-04 20:51 20.16917 -87.65773 88 ft 28 kts 298°
2026-05-04 20:51 20.16941 -87.65819 90 ft 0 kts 300°
2026-05-04 20:51 20.16971 -87.65873 88 ft 21 kts 300°
2026-05-04 20:51 20.16947 -87.65949 91 ft 13 kts 209°
2026-05-04 20:52 20.16907 -87.65972 89 ft 0 kts 208°